Location: St. Louis
(38.6270°N, 90.1994°W)
Time: 10:55:43
(UTC-06:00)

S-56A Canister/Altair - Pass Details

Date: 04 December 2021
Orbit: 634 x 2499 km, 38.9° (Epoch: 26 January)

Event Time Altitude Azimuth Distance (km) Brightness Sun altitude
Rises 01:00:55 0° 256° (WSW) 5,044 - -67.8°
Reaches altitude 10° 01:04:43 10° 256° (WSW) 3,753 - -67.3°
Maximum altitude 01:13:50 85° 171° (S) 1,123 - -65.9°
Drops below altitude 10° 01:19:47 10° 82° (E) 2,507 - -65.0°
Sets 01:21:54 0° 82° (E) 3,293 - -64.6°
